Location: Songkhla
(7.2000°N, 100.6000°E)
Time: 04:15:40
(UTC+07:00)

BRICSAT 2 - Pass Details

Date: 17 June 2021
Orbit: 295 x 638 km, 28.5° (Epoch: 28 July)

Event Time Altitude Azimuth Distance (km) Brightness Sun altitude
Rises 13:33:01 0° 256° (WSW) 1,983 ? 65.9°
Reaches altitude 10° 13:35:01 10° 266° (W) 1,187 ? 65.5°
Maximum altitude 13:37:28 32° 333° (NNW) 577 ? 65.1°
Drops below altitude 10° 13:40:07 10° 40° (NE) 1,290 ? 64.6°
Sets 13:42:28 0° 50° (NE) 2,228 ? 64.2°
